Wind_Speed
6 6 4 15 14 9 14 15 7 17 19 18 16 14 14 15 13 14 14 15 14 11 14 19 21 20 23 20 19 19 18 17 8 14 16 17 18 21 22 21 22 22 21 22
8 4 5 6 5 5 4 2 6 20 18 17 15 14 13 13 13 13 13 13 14 14 15 16 17 16 18 20 19 16 18 17 16 12 6 14 15 17 19 22 22 23 24 24
9 5 4 9 11 10 8 5 5 13 19 16 15 14 13 13 12 12 12 12 12 12 14 15 15 15 16 13 14 17 16 16 16 15 11 12 10 13 17 19 21 24 26 26
6 2 11 6 5 3 8 7 6 14 16 16 15 13 12 10 10 10 9 10 10 11 11 12 13 14 12 12 7 14 16 18 20 18 15 15 14 14 17 16 19 23 25 27
10 8 2 7 4 6 11 11 5 12 11 12 12 13 10 8 7 8 7 9 9 9 8 8 11 12 12 10 11 12 13 13 15 16 15 15 16 18 15 17 20 21 21 25
7 12 15 15 12 5 1 11 8 9 12 12 11 12 12 7 5 6 7 8 8 9 8 9 11 12 12 12 12 13 14 13 13 13 13 14 15 17 18 18 17 19 21 26
8 6 3 10 7 5 9 5 12 9 8 5 3 10 9 5 4 4 5 7 8 8 8 9 10 12 11 12 12 13 14 13 13 13 13 12 14 14 18 18 18 15 18 22
8 8 10 9 5 6 10 10 9 9 7 5 5 4 3 2 2 2 4 5 7 8 9 10 11 12 13 13 14 16 15 15 14 14 14 14 14 15 14 14 17 15 16 17
4 4 6 4 8 9 7 10 6 6 7 3 2 2 2 3 3 4 5 7 7 9 8 8 10 13 15 15 17 18 18 18 17 16 15 15 16 16 17 14 11 13 14 17
3 9 4 3 5 4 3 4 6 4 6 4 3 2 3 3 4 4 7 8 9 9 9 9 10 12 14 16 18 21 21 20 20 18 17 17 16 16 17 16 16 16 14 17
7 6 2 7 8 7 5 3 5 7 5 3 2 3 4 3 5 7 6 7 8 9 10 11 13 14 15 16 17 19 21 22 21 20 20 19 17 18 17 17 16 16 17 20
4 7 4 3 10 8 8 7 6 6 7 6 3 4 3 4 4 4 6 6 7 8 10 12 13 14 15 17 17 18 20 19 22 23 21 22 22 23 21 22 23 22 23 22
7 6 7 2 3 11 9 9 8 7 5 6 5 6 4 6 4 2 5 6 7 8 9 11 12 13 14 16 16 17 18 20 21 23 25 25 25 24 25 26 25 24 24 22
8 3 5 6 6 8 10 10 7 8 8 6 4 5 5 3 4 2 5 7 5 6 6 8 10 11 13 16 17 18 18 19 21 24 24 26 28 28 28 26 25 26 23 22
10 10 11 8 9 10 12 12 11 9 9 9 8 7 5 4 4 1 4 5 6 5 4 6 8 12 13 15 18 22 22 20 20 23 26 27 30 31 30 29 31 31 29 27
10 9 11 10 11 11 13 12 12 10 11 9 8 9 12 6 3 7 1 3 5 3 4 6 9 11 12 14 18 21 23 22 21 24 26 25 28 32 33 32 31 31 30 28
11 11 9 10 10 12 13 13 13 11 10 9 11 11 13 10 11 8 3 5 5 4 4 4 8 13 14 17 20 22 24 23 23 25 26 26 25 27 30 31 32 31 31 32
7 10 11 12 9 11 8 11 10 14 11 10 11 12 11 12 13 4 6 7 5 8 6 5 5 13 15 19 22 23 22 22 22 24 25 26 27 26 29 32 30 29 33 35
9 11 15 17 20 22 19 19 19 18 14 12 13 14 13 13 14 8 9 9 9 8 5 3 6 10 13 16 20 20 20 21 23 24 26 28 28 27 28 29 29 30 32 32
10 13 17 17 18 20 19 16 15 14 16 17 17 18 16 15 13 12 12 12 9 7 8 7 7 8 11 12 16 17 19 20 21 23 26 27 27 26 26 28 30 29 29 29
9 10 10 11 11 14 14 16 18 14 16 17 19 20 18 14 15 13 13 14 8 9 6 6 6 7 11 13 13 16 17 20 21 22 24 25 25 25 25 25 26 27 28 28
9 4 6 7 10 12 16 18 22 21 24 22 20 22 18 14 16 14 14 12 7 7 7 7 7 4 8 9 10 12 15 19 20 21 21 23 23 23 23 23 23 23 24 26
8 7 10 12 15 15 14 11 11 14 22 27 26 26 19 17 19 17 13 14 10 8 7 9 5 11 11 9 11 10 13 17 19 19 21 22 22 22 22 21 20 21 22 22
10 11 13 14 15 13 10 6 7 10 13 12 25 25 18 18 18 15 10 16 8 6 9 9 8 12 11 13 11 8 10 11 16 19 21 22 22 21 19 16 14 12 13 12
10 10 9 10 10 5 6 6 6 6 4 3 10 14 19 19 10 10 8 5 5 10 15 9 12 12 12 15 13 9 11 10 11 14 22 20 22 19 18 14 11 12 11 10
10 10 8 8 9 6 4 4 6 9 4 4 2 8 8 9 10 6 6 5 9 9 12 4 10 9 12 15 12 10 11 6 7 12 14 19 20 19 18 17 15 14 13 12
7 10 6 5 9 6 4 5 9 8 12 11 4 3 9 10 4 3 2 8 6 5 10 8 10 7 12 13 8 9 11 4 5 7 7 12 16 17 17 15 17 18 18 17
Wind_Direction
48 26 139 178 201 214 233 255 322 123 139 136 130 118 105 111 100 89 79 78 73 72 63 46 39 26 22 14 11 8 359 344 204 210 224 232 229 229 227 223 223 224 228 229
144 88 77 168 153 266 262 290 266 114 114 115 112 121 113 102 95 83 71 64 65 63 70 65 56 37 27 22 21 20 17 5 345 311 321 227 230 233 237 238 232 229 229 228
233 155 231 229 214 207 185 223 242 165 139 138 144 130 121 109 94 86 80 70 58 53 51 47 49 40 32 26 32 32 26 18 13 10 343 313 276 245 239 239 241 237 237 236
268 154 234 78 14 318 200 170 87 95 128 154 137 118 101 90 94 84 72 68 61 51 47 37 38 34 28 33 44 40 30 21 14 11 356 348 338 274 258 252 242 242 244 242
260 207 266 153 171 195 197 152 189 133 125 119 137 137 130 96 77 76 65 61 46 36 32 37 26 20 15 26 20 24 26 22 14 7 356 344 334 327 317 263 255 252 254 251
208 253 220 71 96 11 239 185 164 150 159 156 171 202 132 116 69 56 44 36 24 11 8 19 9 5 3 7 5 10 4 1 358 356 352 342 333 329 324 313 270 258 255 252
220 226 143 103 116 168 209 106 149 167 149 152 159 62 103 100 77 36 13 1 353 354 354 358 353 350 348 349 353 347 342 339 340 339 336 332 328 323 320 311 302 285 256 259
244 225 233 120 139 234 84 112 114 106 114 120 77 90 95 62 43 19 15 357 347 334 339 338 338 338 335 333 332 328 326 323 322 324 326 322 320 315 303 297 296 303 297 283
261 54 77 123 65 105 123 127 124 140 123 125 152 80 35 9 17 29 33 26 1 350 334 339 344 339 328 329 324 319 315 312 309 309 311 312 311 306 305 292 284 310 302 316
1 175 133 153 123 152 186 153 145 153 141 145 111 85 77 48 40 21 41 28 11 11 10 353 343 331 321 320 323 320 312 303 302 297 299 301 299 302 301 302 310 316 310 305
242 243 179 202 200 177 175 170 165 139 145 131 156 128 73 61 33 25 357 359 354 354 346 341 342 337 329 323 324 317 312 310 297 291 290 290 290 290 292 292 291 295 293 296
258 26 241 310 191 190 185 192 187 180 164 152 162 105 116 96 72 32 20 4 353 347 339 339 336 330 325 321 325 318 313 307 303 307 297 294 291 290 283 283 282 281 284 284
280 42 297 48 197 177 191 185 186 190 180 171 162 130 195 121 95 30 11 358 354 345 337 333 331 334 333 327 321 320 317 308 304 299 293 292 289 288 288 286 282 281 280 277
290 251 232 218 188 187 198 178 172 190 180 185 192 173 183 168 152 3 349 344 343 336 335 336 330 337 337 334 332 324 314 305 299 295 293 289 283 279 278 281 283 282 281 284
265 256 261 324 214 188 192 187 188 202 200 203 188 180 232 211 102 110 322 312 325 316 317 320 320 327 333 334 330 324 317 311 303 296 294 292 292 288 282 279 278 279 279 277
272 270 250 242 260 231 192 198 206 204 210 203 209 172 205 213 216 212 228 282 284 299 328 327 319 351 345 339 333 324 317 311 306 299 295 289 285 284 281 277 274 275 278 277
264 238 238 240 231 264 207 204 203 219 213 209 206 188 179 191 221 233 182 225 231 259 259 313 347 347 344 346 341 329 317 311 308 302 295 287 286 286 289 288 286 279 278 280
229 236 225 219 217 247 243 229 221 232 227 217 219 206 196 181 237 226 217 229 238 252 236 295 329 342 347 345 341 330 319 316 315 308 299 293 289 284 280 281 285 282 278 279
217 234 215 203 204 217 222 225 229 232 230 220 219 220 223 216 209 211 216 231 241 254 230 319 319 321 336 348 343 339 336 330 321 312 304 298 294 288 281 278 276 275 276 278
256 257 252 226 215 212 221 234 241 240 222 217 222 219 218 218 214 209 218 235 264 281 294 290 311 307 326 346 349 351 345 335 324 317 307 299 295 291 286 282 278 277 274 275
257 270 269 251 241 258 251 247 240 245 244 223 226 216 217 212 220 210 223 244 232 209 265 273 269 303 327 340 346 354 348 338 328 319 316 306 302 299 293 286 281 278 276 273
345 310 289 287 301 290 271 255 242 246 235 234 231 234 209 203 229 212 230 259 253 233 271 245 231 295 312 325 322 339 350 347 330 325 320 317 312 307 304 297 288 284 279 275
317 305 293 283 282 281 281 272 267 283 256 233 218 224 204 200 220 212 222 223 238 200 264 277 222 284 291 295 298 317 325 338 337 333 335 329 322 319 314 310 308 295 288 280
336 325 333 326 315 296 273 276 278 286 280 297 235 203 184 216 234 222 206 169 209 270 266 280 245 262 276 293 288 286 312 309 340 343 349 346 338 337 331 331 332 330 317 296
337 348 350 344 328 309 276 305 300 286 301 87 278 183 188 207 211 225 216 233 212 246 266 249 238 263 271 287 293 278 292 298 324 350 1 350 351 346 346 344 356 11 20 20
356 355 344 3 343 325 37 36 37 21 33 59 112 146 205 238 235 231 236 236 260 228 265 223 274 262 288 295 306 325 325 317 315 340 359 1 357 1 359 9 23 30 37 45
51 9 14 43 27 22 46 116 104 80 74 70 56 261 258 215 180 235 190 233 242 303 261 298 305 321 310 331 332 320 319 345 294 331 345 359 358 1 6 12 33 45 53 57
Height
755 746 732 745 754 757 758 747 759 769 778 779 786 793 799 806 812 816 818 821 825 826 825 823 820 824 824 824 821 819 817 816 819 823 828 830 833 836 838 840 842 844 846 848
767 762 760 765 766 766 757 759 755 763 787 780 790 798 805 811 815 820 822 823 824 826 828 831 832 832 830 826 827 825 824 822 819 822 824 826 830 832 834 835 837 839 841 842
773 767 769 780 766 767 765 762 755 770 779 789 799 804 810 816 820 824 826 828 828 829 831 831 833 835 834 832 832 830 830 829 826 824 825 826 826 827 829 832 833 834 836 837
774 777 796 769 762 754 763 768 764 774 783 790 797 806 813 818 824 828 830 832 834 835 836 836 836 835 836 836 835 833 833 832 830 828 828 826 826 825 826 827 827 829 830 831
785 784 773 778 777 773 772 782 775 783 790 796 802 809 823 826 828 831 833 835 837 839 839 839 839 838 837 835 834 833 834 833 831 831 829 828 827 824 823 823 822 823 824 826
778 785 788 772 774 774 766 788 786 786 796 802 805 811 815 826 829 832 834 836 838 839 838 838 839 838 838 836 834 834 834 834 833 832 831 829 827 825 823 822 819 818 818 818
781 786 773 776 783 784 804 799 789 791 799 806 807 815 825 828 831 834 835 836 838 838 838 839 839 839 839 838 837 837 836 834 833 832 830 828 826 825 823 821 818 815 812 811
783 786 793 783 790 796 797 797 799 804 811 814 817 821 825 828 831 833 835 836 837 837 838 839 840 839 839 838 838 837 836 833 832 830 828 826 824 823 821 820 817 813 806 802
784 787 792 791 793 799 799 806 809 811 817 820 821 823 826 828 831 833 836 839 839 839 838 839 840 840 839 838 837 835 834 832 830 828 826 824 822 819 816 812 809 805 803 801
796 785 795 797 800 804 807 807 812 815 818 822 823 826 827 830 832 834 837 840 843 842 842 843 843 843 842 839 837 834 830 828 826 823 822 821 818 815 811 807 804 801 800 800
794 790 798 798 802 805 810 813 815 819 820 823 826 826 831 833 835 838 840 841 842 843 843 844 844 842 841 839 836 834 830 827 822 819 817 815 814 812 810 808 808 806 805 805
795 789 791 795 798 804 811 815 818 820 823 826 829 830 836 836 841 841 841 842 842 842 843 843 843 842 840 838 836 834 831 826 822 819 815 812 809 807 806 804 803 802 801 801
792 796 796 796 802 806 810 815 818 820 822 824 827 831 833 835 840 842 841 841 842 842 842 843 842 841 840 839 836 834 831 828 823 820 815 811 807 804 800 797 796 794 793 792
796 798 801 800 802 806 810 813 819 819 821 824 825 828 829 832 836 839 842 842 841 842 843 843 843 841 839 837 834 831 829 826 823 818 814 810 806 801 797 793 790 788 788 787
798 798 797 799 800 803 809 812 816 817 818 820 823 828 830 831 835 839 840 842 841 842 842 842 841 839 837 835 832 829 825 821 819 817 814 810 805 799 794 791 788 784 782 780
795 799 798 804 804 801 804 808 811 812 813 814 818 823 828 829 834 835 837 841 841 840 840 840 838 836 834 832 830 827 823 818 815 812 810 807 803 798 790 785 781 777 775 773
795 800 802 803 804 803 800 803 806 807 808 811 815 819 825 830 832 828 833 837 838 838 838 836 835 833 832 828 826 822 822 816 811 808 805 802 799 795 791 784 776 771 770 769
798 799 800 802 803 804 802 802 804 806 807 810 812 816 820 824 825 826 830 833 835 835 833 832 833 831 828 825 824 821 819 812 807 803 801 798 794 789 786 782 777 772 768 764
795 796 797 798 800 802 801 802 802 803 804 807 809 811 814 816 819 823 828 829 829 828 828 828 828 827 827 825 824 819 814 808 804 800 798 794 788 782 778 775 770 767 764 760
790 791 790 789 790 792 794 795 794 796 799 802 805 806 808 811 814 819 822 823 822 823 824 823 825 824 822 821 820 816 811 807 802 798 794 790 782 776 771 767 764 759 756 752
783 785 784 786 787 788 787 790 791 793 795 797 799 800 803 807 809 813 816 814 815 818 819 819 820 819 818 818 816 812 808 804 801 795 791 785 776 770 764 760 755 751 747 745
779 782 785 787 787 786 786 786 787 787 787 792 793 795 796 801 805 806 809 809 809 811 813 813 814 815 815 813 811 809 806 802 798 793 787 780 773 765 759 753 747 743 739 737
782 782 783 782 782 782 782 782 783 784 783 783 786 790 790 794 798 797 800 804 806 808 808 807 807 809 809 808 806 804 802 799 796 790 783 776 770 763 755 748 742 738 733 730
783 782 781 781 780 779 780 782 783 782 781 779 778 782 786 792 792 792 793 798 802 803 803 802 803 804 803 801 800 799 797 796 792 786 780 774 767 760 754 747 741 736 731 726
784 783 783 784 782 780 780 780 779 778 778 776 775 769 782 786 788 794 792 793 797 800 797 796 798 798 798 796 794 793 793 790 788 783 778 773 767 761 755 748 742 736 731 727
784 783 784 784 784 782 781 782 783 782 779 779 781 782 786 787 786 786 788 790 792 794 793 793 795 793 792 789 787 787 787 785 784 782 778 773 769 763 756 751 743 737 733 729
785 787 784 784 784 784 782 784 786 786 785 785 785 788 787 786 785 785 787 788 789 791 790 789 787 787 786 783 784 783 782 781 780 779 777 774 769 765 760 754 749 743 738 735